EW5485 Weather Reports


Display with metric or nautical units.
time (UTC)temp
F
wind
direction
speed
MPH
gust
MPH
rain 1hr
in
rain 24hr
in
rain mn
in
humidity
%
barometer
mb
20260504043100 52 139 1.0 3.0 0.00 0.00 0.00 84 1029.4
20260504041554 53 93 0.0 1.0 0.00 0.00 0.00 83 1029.4
20260504040050 53 81 0.0 2.0 0.00 0.00 0.00 83 1029.4
20260504034605 52 143 0.0 1.0 0.00 0.00 0.00 86 1029.6
20260504033042 51 136 0.0 3.0 0.00 0.00 0.00 86 1029.6
20260504031537 51 162 0.0 3.0 0.00 0.00 0.00 87 1029.6
20260504030039 51 184 0.0 1.0 0.00 0.00 0.00 86 1029.7
20260504024527 51 195 0.0 1.0 0.00 0.00 0.00 88 1029.7
20260504023022 50 327 0.0 3.0 0.00 0.00 0.00 88 1029.8
20260504021518 50 119 0.0 2.0 0.00 0.00 0.00 89 1029.9
20260504020018 49 165 1.0 3.0 0.00 0.00 0.00 90 1030.1
20260504014509 49 133 0.0 0.0 0.00 0.00 0.00 91 1030.3
20260504013004 48 132 0.0 0.0 0.00 0.00 0.00 92 1030.5
20260504011606 48 272 0.0 0.0 0.00 0.00 0.00 93 1030.6
20260504010100 47 148 0.0 0.0 0.00 0.00 0.00 94 1030.9
20260504004552 47 283 0.0 4.0 0.00 0.00 0.00 95 1031.2
20260504003051 46 304 0.0 0.0 0.00 0.00 0.00 95 1031.5
20260504001543 46 291 0.0 2.0 0.00 0.00 0.00 96 1031.7
20260504000038 46 275 0.0 3.0 0.00 0.00 0.00 96 1032.0
20260503234544 46 171 0.0 5.0 0.00 0.00 0.00 96 1032.0
20260503233031 45 131 0.0 0.0 0.00 0.00 0.00 97 1032.1
20260503231527 44 132 0.0 5.0 0.00 0.00 0.00 96 1032.2
20260503230023 44 188 0.0 0.0 0.00 0.00 0.00 97 1032.2
20260503224515 43 133 0.0 3.0 0.00 0.00 0.00 96 1032.0
20260503223011 43 316 0.0 3.0 0.00 0.00 0.00 96 1032.2
20260503221506 43 126 0.0 0.0 0.00 0.00 0.00 97 1032.1
20260503220005 41 260 0.0 0.0 0.00 0.00 0.00 97 1032.2
20260503214557 40 339 0.0 0.0 0.00 0.00 0.00 97 1032.1
20260503213101 38 298 0.0 3.0 0.00 0.00 0.00 97 1032.1
20260503211548 38 285 0.0 0.0 0.00 0.00 0.00 97 1032.0
20260503210046 37 296 0.0 0.0 0.00 0.00 0.00 97 1031.9
20260503204539 36 303 0.0 0.0 0.00 0.00 0.00 97 1031.9
20260503203034 36 300 0.0 0.0 0.00 0.00 0.00 97 1031.7
20260503201530 0 0.0 0.0 0.00 0.00 0.00 1031.5
20260503200025 0 0.0 0.0 0.00 0.00 0.00 1031.4
20260503194523 0 0.0 0.0 0.00 0.00 0.00 1031.2
20260503193017 0 0.0 0.0 0.00 0.00 0.00 1031.1
20260503191519 0 0.0 0.0 0.00 0.00 0.00 1031.1
20260503190008 0 0.0 0.0 0.00 0.00 0.00 1031.1
20260503184503 0 0.0 0.0 0.00 0.00 0.00 1031.0
20260503183110 0 0.0 0.0 0.00 0.00 0.00 1031.0
20260503181608 0 0.0 0.0 0.00 0.00 0.00 1031.0
20260503180049 0 0.0 0.0 0.00 0.00 0.00 1030.9
20260503174545 0 0.0 0.0 0.00 0.00 0.00 1030.8
20260503173045 0 0.0 0.0 0.00 0.00 0.00 1030.8
20260503171536 0 0.0 0.0 0.00 0.00 0.00 1030.9
20260503081535 44 312 0.0 0.0 0.00 0.00 0.00 96 1030.7
20260503071528 44 358 0.0 0.0 0.00 0.00 0.00 94 1030.7
20260503054518 50 19 0.0 2.0 0.00 0.00 0.00 83 1030.2
20260503053016 53 110 0.0 1.0 0.00 0.00 0.00 75 1030.0
20260503051515 56 110 0.0 0.0 0.00 0.00 0.00 72 1030.1
20260503050028 58 110 0.0 0.0 0.00 0.00 0.00 67 1030.0
20260503044515 60 110 0.0 1.0 0.00 0.00 0.00 61 1030.0